This is the latest recevied weather packets stored in our database for station/object S51UL-6. If no packets are shown the sender has not sent any weather packets the latest 10 day(s).
| Time | Temp. | Humidity | Pressure | Rain* | Wind** | Luminosity | Snow |
|---|---|---|---|---|---|---|---|
| 1787984549 | 20.56° C | 71% | 1017.1 hPa | 0 mm | - | - | - |
| 1787984248 | 20.56° C | 70% | 1017.1 hPa | 0 mm | - | - | - |
| 1787983948 | 20.56° C | 70% | 1017 hPa | 0 mm | - | - | - |
| 1787983648 | 20.56° C | 69% | 1016.7 hPa | 0 mm | - | - | - |
| 1787983349 | 20.56° C | 69% | 1016.5 hPa | 0 mm | - | - | - |
| 1787982750 | 20.56° C | 69% | 1016.5 hPa | 0 mm | - | - | - |
| 1787982449 | 20.56° C | 70% | 1016.6 hPa | 0 mm | - | - | - |
| 1787982148 | 20° C | 70% | 1016.2 hPa | 0 mm | - | - | - |
| 1787981848 | 20° C | 70% | 1016.1 hPa | 0 mm | - | - | - |
| 1787981550 | 20° C | 70% | 1016.2 hPa | 0 mm | - | - | - |
| 1787981250 | 20° C | 70% | 1016.4 hPa | 0 mm | - | - | - |
| 1787980950 | 20° C | 70% | 1016.4 hPa | 0 mm | - | - | - |
| 1787980349 | 20° C | 69% | 1016.5 hPa | 0 mm | - | - | - |
| 1787980049 | 20° C | 69% | 1016.3 hPa | 0 mm | - | - | - |
| 1787979749 | 20° C | 69% | 1016.3 hPa | 0 mm | - | - | - |
| 1787979449 | 20° C | 68% | 1016.4 hPa | 0 mm | - | - | - |
| 1787978250 | 20.56° C | 66% | 1016.4 hPa | 0 mm | - | - | - |
| 1787977049 | 20.56° C | 69% | 1016.3 hPa | 0 mm | - | - | - |
| 1787974650 | 20.56° C | 77% | 1015.8 hPa | 0 mm | - | - | - |
| 1787974050 | 20.56° C | 77% | 1015.6 hPa | 0 mm | - | - | - |
| 1787973453 | 20.56° C | 77% | 1015.4 hPa | 0 mm | - | - | - |
| 1787972852 | 21.11° C | 76% | 1015.1 hPa | 0 mm | - | - | - |
| 1787972550 | 21.11° C | 75% | 1015 hPa | 0 mm | - | - | - |
| 1787972250 | 21.11° C | 74% | 1014.6 hPa | 0 mm | - | - | - |
| 1787970451 | 22.78° C | 68% | 1014.3 hPa | 0 mm | - | - | - |
* Rain latest hour (hover to see other rain measurements)
** Current wind speed in m/s (hover to see current wind gust speed)